TimeWET,TemperatureF,Dew PointF,Humidity,Sea Level PressureIn,VisibilityMPH,Wind Direction,Wind SpeedMPH,Gust SpeedMPH,PrecipitationIn,Events,Conditions,WindDirDegrees,DateUTC
12:00 AM,57,46,57,29.74,6,West,18.4,,,,Scattered Clouds,280,2013-03-06 00:00:00
12:00 AM,57.2,46.4,67,29.74,6.2,West,17.3,-,N/A,,Scattered Clouds,280,2013-03-06 00:00:00
3:00 AM,54,46,66,29.77,5,WSW,9.2,,,,Scattered Clouds,240,2013-03-06 03:00:00
6:00 AM,53,49,80,29.82,5,Calm,Calm,,,,Partly Cloudy,,2013-03-06 06:00:00
7:00 AM,53.6,48.2,82,29.83,6.2,SE,3.5,-,N/A,,Scattered Clouds,140,2013-03-06 07:00:00
7:30 AM,53.6,48.2,82,29.83,6.2,SE,8.1,-,N/A,,Scattered Clouds,130,2013-03-06 07:30:00
8:00 AM,57.2,48.2,72,29.86,6.2,Calm,Calm,-,N/A,,Scattered Clouds,0,2013-03-06 08:00:00
8:30 AM,59.0,48.2,67,29.86,6.2,SE,5.8,-,N/A,,Scattered Clouds,130,2013-03-06 08:30:00
9:00 AM,62,49,54,29.84,6,ESE,8.1,,,,Partly Cloudy,110,2013-03-06 09:00:00
9:00 AM,62.6,48.2,59,29.86,6.2,ESE,8.1,-,N/A,,Scattered Clouds,110,2013-03-06 09:00:00
9:30 AM,62.6,48.2,59,29.89,6.2,East,6.9,-,N/A,,Scattered Clouds,90,2013-03-06 09:30:00
10:30 AM,64.4,51.8,64,29.89,6.2,East,4.6,-,N/A,,Mostly Cloudy,90,2013-03-06 10:30:00
11:00 AM,69.8,51.8,53,29.89,6.2,Variable,2.3,-,N/A,,Mostly Cloudy,0,2013-03-06 11:00:00
11:30 AM,69.8,53.6,56,29.89,6.2,West,6.9,-,N/A,,Scattered Clouds,270,2013-03-06 11:30:00
11:46 AM,71,56,49,29.85,6,West,13.8,,,,Partly Cloudy,270,2013-03-06 11:46:00
12:00 PM,71.6,55.4,57,29.92,6.2,West,13.8,-,N/A,,Scattered Clouds,270,2013-03-06 12:00:00
12:30 PM,69.8,59.0,68,29.92,6.2,WNW,10.4,-,N/A,,Scattered Clouds,290,2013-03-06 12:30:00
1:00 PM,68.0,60.8,78,29.92,6.2,West,8.1,-,N/A,,Scattered Clouds,280,2013-03-06 13:00:00
1:30 PM,71.6,60.8,69,29.92,6.2,West,18.4,-,N/A,,Scattered Clouds,280,2013-03-06 13:30:00
2:00 PM,71.6,59.0,64,29.89,6.2,West,25.3,-,N/A,,Scattered Clouds,280,2013-03-06 14:00:00
2:30 PM,71.6,57.2,60,29.89,6.2,WNW,21.9,33.4,N/A,,Mostly Cloudy,290,2013-03-06 14:30:00
3:00 PM,72,56,47,29.86,6,WNW,19.6,,,,Partly Cloudy,290,2013-03-06 15:00:00
3:00 PM,73.4,57.2,57,29.92,6.2,WNW,19.6,32.2,N/A,,Mostly Cloudy,290,2013-03-06 15:00:00
3:30 PM,73.4,57.2,57,29.92,6.2,West,19.6,-,N/A,,Mostly Cloudy,280,2013-03-06 15:30:00
4:00 PM,71.6,55.4,57,29.92,6.2,West,19.6,31.1,N/A,,Mostly Cloudy,280,2013-03-06 16:00:00
4:30 PM,71.6,55.4,57,29.92,6.2,WNW,15.0,-,N/A,,Mostly Cloudy,290,2013-03-06 16:30:00
5:00 PM,71.6,53.6,53,29.95,6.2,West,16.1,-,N/A,,Mostly Cloudy,280,2013-03-06 17:00:00
5:30 PM,69.8,55.4,60,29.95,6.2,WNW,13.8,-,N/A,,Mostly Cloudy,290,2013-03-06 17:30:00
6:00 PM,68,56,56,29.91,6,West,11.5,,,,Partly Cloudy,280,2013-03-06 18:00:00
6:00 PM,68.0,55.4,64,29.95,6.2,West,11.5,-,N/A,,Mostly Cloudy,280,2013-03-06 18:00:00
6:30 PM,68.0,57.2,68,29.95,6.2,West,6.9,-,N/A,,Mostly Cloudy,270,2013-03-06 18:30:00
7:00 PM,66.2,57.2,73,29.98,6.2,WNW,5.8,-,N/A,,Mostly Cloudy,290,2013-03-06 19:00:00
7:30 PM,62.6,55.4,77,29.98,6.2,West,4.6,-,N/A,,Mostly Cloudy,270,2013-03-06 19:30:00
8:00 PM,60.8,55.4,82,29.98,6.2,West,2.3,-,N/A,,Mostly Cloudy,280,2013-03-06 20:00:00
8:30 PM,62.6,55.4,77,30.01,6.2,Variable,2.3,-,N/A,,Mostly Cloudy,0,2013-03-06 20:30:00
9:00 PM,62,56,77,29.99,6,Calm,Calm,,,,Partly Cloudy,,2013-03-06 21:00:00
9:00 PM,62.6,57.2,82,30.01,6.2,Calm,Calm,-,N/A,,Mostly Cloudy,0,2013-03-06 21:00:00
9:30 PM,62.6,57.2,82,30.04,6.2,Variable,1.2,-,N/A,,Mostly Cloudy,0,2013-03-06 21:30:00
10:00 PM,60.8,57.2,88,30.04,6.2,West,4.6,-,N/A,,Scattered Clouds,280,2013-03-06 22:00:00
10:30 PM,59.0,57.2,94,30.01,6.2,WNW,5.8,-,N/A,,Scattered Clouds,290,2013-03-06 22:30:00
11:00 PM,59.0,55.4,88,30.04,6.2,West,3.5,-,N/A,,Partly Cloudy,270,2013-03-06 23:00:00
11:30 PM,57.2,57.2,100,30.04,6.2,WNW,3.5,-,N/A,,Partly Cloudy,300,2013-03-06 23:30:00